Wind_Speed
19 20 19 17 17 17 18 16 15 14 13 11 11 13 13 13 14 15 16 16 15 15 15 14 13 11 10 10 10 10 10 10 9 8 8 7 7 7 7 7 6 6 5 5 4 3 3 3 3 4 3 2 2 2 2 1 0 2 2 3 5 6 8 9 10 10 9 8 8 9 9 8 8 7 8 7 7 6 6 6 6 6 7 7 8
18 20 20 18 17 18 18 17 15 15 14 12 12 13 13 14 14 15 16 17 16 15 14 14 13 10 9 9 9 9 9 9 8 8 8 7 7 7 7 6 6 6 5 5 4 3 2 2 3 3 3 2 1 1 2 3 2 1 2 3 4 6 7 8 9 10 10 9 9 8 8 8 7 7 8 8 8 7 7 6 6 6 7 7 7
19 20 21 20 19 19 18 17 15 14 14 13 12 13 14 14 15 16 17 17 16 15 14 13 12 11 9 9 8 8 8 8 8 8 8 7 7 7 7 7 7 6 6 5 3 2 2 2 3 3 3 2 1 2 3 3 3 2 1 2 3 6 6 7 8 9 10 9 8 8 8 7 6 7 8 9 9 8 8 7 7 7 7 7 8
20 21 21 21 21 21 20 18 16 15 15 14 14 14 15 15 16 16 17 17 16 14 13 12 12 11 10 9 9 8 7 8 8 8 7 7 6 6 6 7 7 6 6 5 3 3 3 3 3 2 2 2 2 3 2 2 2 2 1 1 2 4 5 6 8 9 9 9 8 8 9 8 6 7 8 8 9 9 8 8 7 8 8 8 9
22 21 22 22 23 22 21 19 17 17 16 16 16 16 16 16 16 16 17 16 15 14 12 12 12 12 11 10 10 8 8 7 7 7 7 6 6 5 5 6 7 7 6 5 4 4 3 3 3 2 2 3 3 3 3 2 2 2 2 2 2 3 4 4 6 8 8 9 9 8 7 7 7 7 7 7 8 9 8 7 7 7 7 8 9
23 22 23 24 23 22 21 20 19 18 17 17 17 17 17 16 16 16 16 16 15 14 13 12 12 12 12 11 10 9 8 8 6 6 5 5 5 5 5 6 7 7 7 6 5 4 4 3 3 2 2 3 4 3 3 3 3 3 3 3 2 3 3 3 5 7 6 7 8 9 7 7 8 8 8 6 6 8 8 7 6 6 6 6 8
23 23 24 24 24 23 22 21 20 18 17 17 17 19 18 17 17 17 16 15 15 14 14 14 13 13 13 12 11 10 8 7 5 4 5 5 5 5 5 5 5 6 6 5 4 4 4 3 2 2 2 2 3 3 3 4 4 3 3 3 3 3 3 1 3 5 5 5 6 7 7 7 7 8 9 8 7 7 7 7 6 5 6 6 6
23 24 25 26 25 24 23 21 20 18 17 17 18 20 20 18 17 17 15 15 14 14 14 15 14 14 14 13 11 10 8 6 5 4 5 5 5 5 4 4 5 5 5 5 4 4 4 3 2 2 2 2 2 4 4 4 3 3 3 4 4 3 3 2 2 3 4 4 5 5 6 5 5 6 7 8 8 7 6 7 7 6 7 8 7
26 26 27 28 26 24 23 21 20 19 19 18 17 19 21 20 18 17 15 14 14 14 14 15 14 14 15 14 12 10 8 7 7 6 6 6 5 5 5 4 4 5 5 5 4 4 3 3 3 2 2 2 2 3 4 4 3 3 4 4 4 4 4 3 3 2 2 2 3 4 5 4 3 4 5 6 7 7 6 7 8 7 7 8 8
29 28 29 29 27 24 23 22 21 21 20 18 17 17 19 20 20 19 16 14 13 13 14 15 15 15 15 14 12 10 9 8 8 8 7 7 6 6 5 4 5 5 5 5 4 3 3 3 3 3 3 3 2 3 3 4 4 3 4 4 4 5 5 4 3 3 1 2 3 3 4 3 2 2 4 5 5 6 6 6 7 7 7 8 8
30 30 31 29 27 25 25 24 23 23 22 20 19 18 18 20 21 20 18 15 13 12 13 15 16 15 14 14 13 11 10 9 9 9 8 7 6 6 6 5 5 5 4 4 4 3 3 3 3 4 4 4 3 3 3 4 4 4 4 5 5 5 5 5 4 4 3 2 3 3 3 2 1 2 3 3 4 5 5 5 6 7 7 7 8
31 31 32 31 29 28 28 27 26 25 24 23 22 20 18 19 20 20 19 17 15 13 13 14 15 15 14 14 13 12 11 10 10 9 8 8 7 6 7 6 6 5 4 3 3 3 3 3 3 4 4 4 4 4 4 4 4 4 4 5 5 5 6 6 5 4 4 3 3 2 2 2 1 2 3 3 3 3 4 5 6 7 7 7 8
31 31 32 32 32 31 31 30 29 28 26 25 23 22 20 19 19 20 20 19 17 15 14 14 15 16 15 14 14 13 12 12 11 9 8 8 7 7 7 6 5 4 2 1 1 1 2 3 3 4 4 4 5 5 5 5 4 4 4 5 5 5 5 6 5 5 4 4 3 3 1 1 1 1 2 2 2 3 4 5 6 7 7 7 8
31 32 32 32 32 32 32 31 30 28 27 26 25 24 22 21 20 20 19 19 18 17 16 15 16 16 15 15 14 14 14 14 13 11 9 8 8 8 8 7 5 4 2 2 1 1 2 3 4 5 5 5 5 5 5 5 4 4 4 4 5 5 5 5 5 5 4 4 4 4 3 2 2 1 1 1 2 3 4 5 7 8 7 7 9
32 33 32 31 32 32 32 31 30 29 27 27 27 25 24 22 21 20 20 19 19 19 17 17 17 17 16 16 15 15 15 16 15 13 10 9 8 8 8 7 6 4 3 2 2 2 2 3 4 5 5 5 5 6 6 6 5 5 4 4 5 5 5 4 4 5 5 5 5 5 5 4 4 3 2 2 2 3 4 6 9 10 9 8 8
31 32 32 32 31 31 32 31 30 30 28 28 28 26 25 23 22 20 20 19 19 19 18 18 18 17 17 17 16 16 16 16 17 15 12 10 9 8 7 7 7 6 5 4 4 3 3 3 4 5 5 6 6 6 6 6 6 5 5 5 4 5 5 5 5 5 5 6 6 6 6 6 6 5 4 4 4 5 5 7 9 10 10 10 9
29 31 31 32 31 30 31 31 31 30 29 28 27 26 25 23 22 21 21 20 19 18 18 18 18 18 18 18 17 17 17 16 16 16 14 12 10 9 8 8 8 7 6 5 5 4 3 3 4 4 5 6 6 6 6 6 6 6 6 5 5 5 5 5 6 6 6 6 7 6 7 8 8 8 7 7 7 7 8 8 9 9 10 10 10
26 27 29 29 30 29 29 30 31 30 28 27 27 26 26 25 23 22 21 21 20 19 18 18 19 19 19 18 18 17 17 17 16 15 15 13 12 11 9 8 8 8 7 6 5 5 4 4 4 5 5 6 6 6 6 6 6 6 6 6 6 6 6 6 6 6 7 7 7 7 7 8 8 8 8 9 9 9 9 10 9 9 9 10 10
23 23 25 26 27 27 28 29 30 31 29 28 28 28 28 27 25 23 22 21 20 19 19 18 18 19 19 18 18 18 18 17 16 16 16 15 13 12 11 10 9 9 9 8 7 7 5 5 5 5 5 5 6 6 6 6 6 6 6 6 6 7 7 6 6 6 6 7 7 8 8 8 8 8 8 9 10 10 10 10 10 10 10 10 10
23 21 21 21 24 25 26 28 29 31 31 30 30 30 29 28 26 24 22 21 20 20 19 18 18 18 18 18 18 18 18 18 17 17 16 16 14 13 13 12 11 10 10 9 9 8 7 6 6 6 6 6 6 6 6 6 6 6 6 6 6 7 7 6 6 6 6 7 7 7 8 8 9 8 8 9 10 11 11 11 11 11 10 10 11
28 24 21 19 20 22 22 25 27 28 29 30 30 30 29 28 27 25 24 22 21 20 19 18 18 18 17 17 18 18 18 18 17 17 17 16 15 14 14 13 12 12 11 11 10 9 8 8 7 8 8 7 7 6 6 7 7 7 6 6 6 7 6 6 6 6 6 7 7 7 7 8 9 9 9 9 9 10 10 10 10 10 10 10 11
30 29 27 23 22 22 21 21 23 24 25 26 27 28 28 27 27 27 26 24 22 20 18 17 17 17 17 17 17 17 18 18 18 18 17 16 16 15 15 14 14 13 12 12 10 9 9 9 9 9 8 8 7 7 7 7 7 7 6 7 7 7 7 7 6 6 7 7 7 7 7 8 9 9 9 9 9 9 9 9 9 10 10 10 10
27 28 28 27 26 25 24 22 21 22 23 24 25 25 25 26 27 28 27 25 22 20 19 19 18 17 17 17 17 17 17 17 18 19 18 17 17 16 16 15 15 14 14 12 11 10 9 9 9 10 9 9 8 7 7 7 6 6 6 7 7 8 8 8 8 7 7 8 8 8 7 7 8 9 9 10 10 10 10 9 9 9 10 10 10
24 25 25 26 26 26 26 26 23 22 23 24 26 26 26 26 27 29 28 26 23 22 21 20 19 19 20 19 19 18 17 16 17 18 18 18 18 18 17 16 16 15 15 13 12 11 10 10 10 10 11 10 9 9 8 7 6 6 6 6 7 8 8 9 9 8 8 8 8 8 7 7 8 9 9 10 11 11 11 11 11 10 11 11 11
19 21 22 23 25 25 26 27 25 22 22 24 26 27 27 26 27 29 29 28 26 24 24 23 21 21 21 21 21 20 20 18 17 17 17 18 18 19 18 17 17 17 15 14 13 13 12 11 10 11 11 12 11 10 10 9 8 7 6 6 7 8 9 9 9 9 9 9 9 9 8 8 9 9 10 10 11 11 11 11 11 11 11 11 12
17 19 20 21 23 24 24 25 26 25 25 25 26 27 28 27 28 29 29 28 27 26 25 24 23 22 22 21 20 20 21 20 19 18 17 18 18 18 18 18 18 17 16 15 14 14 14 13 13 12 13 13 12 12 12 11 9 8 8 7 7 7 8 9 9 10 10 10 10 9 9 9 10 10 11 11 11 11 12 11 11 11 11 11 12
18 18 19 19 18 19 19 20 22 24 25 25 26 27 28 28 28 29 28 28 28 27 26 26 24 23 22 22 20 19 20 21 20 19 18 18 19 19 19 19 19 18 17 17 16 16 15 15 14 14 14 14 13 13 13 12 11 10 9 8 8 7 7 8 9 10 11 11 11 10 10 9 10 10 10 11 11 11 11 12 11 11 12 12 13
16 17 17 15 14 15 18 19 20 22 23 24 24 24 25 26 27 27 26 26 26 26 26 27 26 24 23 24 23 21 20 21 21 19 18 18 19 19 19 19 19 18 17 17 16 15 15 15 15 14 13 14 14 14 13 12 12 11 11 10 9 9 8 8 8 9 10 11 11 11 10 10 10 9 9 9 10 10 11 11 11 11 12 12 13
15 14 13 12 12 14 16 16 17 19 21 23 23 22 22 23 23 23 23 23 23 23 24 25 24 23 22 23 25 23 22 22 22 21 19 18 18 19 19 20 20 19 18 17 16 15 14 14 15 14 14 13 14 14 14 13 13 12 12 12 11 11 10 10 9 9 9 10 10 10 11 10 10 10 10 10 11 11 12 13 13 12 12 13 13
14 13 11 12 12 11 11 12 13 14 15 17 19 19 19 19 19 19 19 21 22 22 22 23 23 23 22 23 24 24 24 24 24 22 19 18 19 20 20 20 20 20 19 17 17 15 15 14 15 15 15 14 14 14 14 14 14 14 14 14 13 13 12 11 11 10 10 10 10 10 10 11 11 11 11 12 12 12 13 13 14 14 14 14 15
14 14 14 13 12 10 9 9 11 12 12 13 14 15 15 16 17 18 18 19 20 20 21 22 21 21 21 21 22 23 25 26 25 24 21 20 20 21 21 21 20 19 18 17 16 16 15 15 15 16 16 16 16 16 15 14 15 15 16 16 15 14 14 13 12 12 12 11 11 10 11 11 11 11 11 11 12 12 13 13 13 13 14 14 15
15 15 13 11 9 9 8 8 8 9 10 11 12 11 12 13 15 16 16 17 18 19 20 20 19 19 19 20 22 23 25 24 24 25 23 21 21 22 22 21 20 19 18 17 17 17 16 16 16 16 17 17 18 17 16 15 15 15 16 17 17 17 16 15 14 13 13 13 12 12 12 12 12 11 11 12 12 12 13 13 13 13 13 13 14
16 15 13 10 9 9 8 8 7 6 6 7 7 7 7 8 10 12 13 15 17 18 19 20 19 18 18 19 19 21 22 22 21 23 23 22 22 22 22 21 20 20 19 18 18 17 17 16 16 17 18 19 19 18 17 17 16 16 16 17 18 18 17 16 15 14 14 14 14 14 14 14 14 13 13 13 14 14 14 14 15 15 15 14 15
16 15 13 11 10 10 10 10 9 8 8 7 5 5 8 8 8 9 9 11 12 14 15 17 16 15 14 14 13 13 15 17 19 22 22 23 23 23 22 21 20 20 19 19 18 18 17 16 16 17 18 20 20 19 19 19 17 16 17 17 18 19 19 18 17 16 15 15 15 15 16 16 16 16 16 16 16 16 16 16 16 16 16 16 17
18 16 14 12 10 9 10 11 11 10 9 7 6 7 10 11 10 9 10 11 13 14 15 15 15 15 15 16 16 16 17 18 19 19 19 20 20 20 19 18 18 18 17 17 17 18 18 17 17 17 17 19 21 20 20 19 17 16 16 17 18 19 19 20 19 18 17 16 16 16 17 17 17 18 18 18 18 17 16 16 17 18 19 20 20
17 16 14 12 10 9 9 9 9 9 8 8 8 10 12 13 13 13 13 15 16 17 17 16 15 14 14 14 13 14 16 17 16 15 15 15 14 14 14 14 14 14 13 13 14 16 16 16 16 17 17 18 19 19 19 19 18 17 17 17 17 18 19 20 20 19 19 18 18 18 18 18 18 19 19 19 19 19 19 19 21 22 23 24 24
15 14 13 12 10 9 10 9 9 8 7 8 9 10 13 15 16 16 16 16 15 14 13 12 11 10 9 7 6 6 7 8 8 9 11 11 10 10 10 10 10 10 10 10 11 12 13 13 14 15 15 15 16 17 18 19 19 19 19 18 18 17 17 18 19 20 20 20 20 20 20 20 20 20 21 21 21 22 23 24 25 26 27 27 27
14 14 13 13 12 11 11 11 11 10 10 9 8 8 9 11 13 13 13 13 14 13 11 10 9 8 6 4 4 4 3 4 5 6 7 8 8 8 8 8 8 9 9 9 9 10 11 12 13 14 14 14 16 17 19 20 20 20 20 20 19 17 17 17 18 19 20 20 20 21 21 22 22 23 24 24 24 25 26 28 28 28 28 29 28
13 14 14 15 15 14 13 12 13 13 13 11 8 7 7 8 9 9 8 7 9 11 10 8 7 7 6 6 5 5 4 4 5 5 5 5 5 6 6 6 7 7 8 9 9 10 10 12 14 15 14 15 17 18 19 20 20 21 21 21 20 19 18 18 18 17 18 19 20 21 22 23 24 26 27 27 27 27 28 28 29 28 28 27 26
13 14 15 16 16 15 14 13 14 14 13 10 7 6 7 8 8 7 7 6 5 6 7 7 5 4 3 4 5 5 5 4 4 4 4 4 4 4 4 5 5 5 6 7 7 7 8 10 11 12 12 13 14 15 16 16 17 19 19 20 21 21 21 21 20 18 18 18 19 20 22 24 24 25 26 26 26 26 26 26 26 26 26 26 25
14 15 16 15 15 14 13 13 13 13 11 8 5 4 5 6 5 4 4 4 5 5 5 5 5 4 3 2 2 3 3 2 3 3 2 2 2 2 2 2 2 3 3 4 4 4 5 6 7 7 8 9 9 10 9 10 10 12 15 17 18 19 20 20 19 18 17 16 16 17 19 20 20 20 20 20 20 20 20 20 21 22 23 24 25
13 14 15 15 14 13 12 11 11 10 8 5 3 2 2 3 3 2 1 1 2 2 3 3 3 1 2 4 2 0 0 1 1 1 1 1 1 2 2 2 2 2 2 2 2 4 4 5 5 5 5 5 6 5 5 6 6 8 9 11 12 13 13 14 13 13 12 12 12 13 13 13 13 14 15 15 15 15 16 16 18 19 20 21 23
14 13 13 12 13 13 12 10 10 8 6 3 1 1 2 3 4 2 1 1 0 2 2 2 1 2 3 4 3 2 2 2 2 2 2 2 3 3 3 3 3 2 2 2 3 5 6 5 5 4 4 4 4 3 4 6 7 7 7 7 8 9 10 10 11 10 10 10 10 10 11 11 11 11 11 12 12 13 14 15 17 18 19 20 21
15 14 13 11 10 10 9 8 8 6 4 3 3 3 3 3 3 2 2 2 2 2 2 1 0 1 2 3 3 3 3 3 3 3 3 4 4 5 5 5 5 4 4 5 5 5 6 6 5 5 4 4 4 4 5 6 8 8 8 7 7 8 9 10 10 10 10 10 11 12 13 13 13 13 13 14 14 15 16 17 19 19 20 20 20
16 15 13 10 8 7 6 6 6 5 4 4 4 4 4 3 3 2 2 3 2 2 2 1 1 1 1 1 2 2 3 3 3 4 4 5 5 6 7 7 7 7 7 6 7 7 7 7 7 7 6 6 6 7 7 8 10 11 11 10 10 11 11 11 11 12 13 14 16 17 16 16 16 17 17 18 19 19 20 21 22 22 22 21 21
18 15 13 10 8 5 4 4 3 3 3 3 4 4 3 3 2 3 3 3 4 4 4 3 3 3 3 2 2 2 2 3 3 4 4 5 5 6 7 7 8 9 9 9 9 9 9 9 9 9 9 9 9 10 11 12 13 14 14 14 14 15 15 16 16 17 17 18 19 20 20 20 20 21 21 22 23 23 23 24 25 24 23 23 23
18 16 14 12 9 6 4 3 2 2 3 4 5 4 3 2 2 2 3 3 4 5 5 6 6 6 6 6 6 5 5 5 5 5 5 5 6 6 6 6 7 8 9 10 10 10 10 11 11 11 11 11 12 13 14 15 16 16 17 17 18 18 19 20 21 22 22 23 23 23 24 24 25 25 25 25 26 26 26 26 25 25 24 23 23
19 17 14 11 8 5 3 2 2 3 3 4 5 5 5 4 4 4 4 5 5 6 7 8 8 9 9 9 9 8 8 7 7 7 7 7 7 7 7 7 7 8 8 9 10 10 10 10 11 12 12 12 13 14 16 16 17 18 19 19 20 21 21 21 22 23 24 24 25 25 25 25 25 26 26 26 26 26 26 25 24 23 23 22 23
20 16 12 8 6 4 3 4 4 3 4 5 6 6 6 6 6 6 7 7 8 8 9 10 10 10 10 10 10 10 9 9 8 8 8 8 8 8 8 8 8 9 9 9 10 10 10 10 10 11 11 11 12 13 14 15 16 17 18 19 20 21 21 21 22 22 23 23 23 23 23 23 23 23 23 23 23 24 25 25 24 24 23 22 23
19 16 12 9 6 5 6 6 4 3 4 5 5 5 5 6 6 7 8 8 9 9 9 10 10 10 11 11 10 10 10 9 9 8 7 7 7 7 8 8 8 9 9 10 10 11 11 11 11 11 11 12 12 13 13 14 15 16 16 17 18 19 20 20 20 21 21 21 21 22 22 22 23 23 23 24 23 23 23 23 24 25 24 23 24
21 18 14 11 8 8 8 7 4 4 5 5 4 5 5 6 6 6 7 8 9 9 9 9 9 10 10 10 10 9 9 9 8 8 7 6 6 6 7 7 8 9 9 9 10 11 11 11 11 11 12 12 13 13 14 15 15 16 16 17 17 18 19 19 19 20 20 21 21 22 22 22 22 22 23 23 23 23 23 23 23 23 22 22 21
Wind_Direction
195 196 195 194 194 190 187 187 190 190 189 189 191 192 190 192 192 190 189 185 179 176 173 169 165 160 156 151 150 152 151 152 149 148 150 152 154 149 147 150 153 153 148 142 137 134 137 141 151 161 168 160 144 160 198 211 39 31 34 28 24 20 15 13 14 24 36 44 56 64 74 86 88 86 78 70 68 64 65 69 72 70 65 69 74
195 198 198 199 199 198 196 194 194 193 192 192 194 196 195 194 195 193 193 190 184 180 179 176 170 163 158 154 151 151 153 152 150 151 153 155 158 157 156 155 156 153 148 141 129 124 134 149 172 190 201 191 169 189 221 232 259 327 350 5 15 15 13 15 19 32 42 47 62 70 77 85 80 76 68 55 53 53 58 64 65 67 67 69 71
194 198 201 203 204 205 205 203 200 196 195 196 195 198 199 197 196 196 197 195 190 185 183 180 175 164 156 155 151 149 152 154 157 159 157 158 159 159 160 160 157 150 142 136 125 130 146 165 186 204 213 209 209 215 226 242 269 295 302 335 10 20 20 18 22 35 41 43 63 70 72 80 70 68 64 50 48 52 58 63 63 67 68 67 70
194 197 200 203 207 211 211 208 205 202 201 200 199 200 200 199 198 198 199 198 195 192 187 183 180 170 160 159 157 152 155 159 164 164 161 162 162 159 160 163 162 155 146 140 141 155 160 168 181 188 196 200 207 219 228 245 266 267 249 287 357 23 24 19 19 31 38 43 60 63 63 65 45 45 56 50 47 49 56 60 64 70 67 67 72
197 196 198 202 208 211 211 210 210 209 206 204 203 202 200 199 199 200 200 199 198 196 191 187 186 181 171 168 169 165 167 170 170 169 167 164 161 162 164 168 168 167 162 157 160 164 162 169 173 169 181 195 200 213 225 228 242 233 221 260 311 359 8 17 20 24 34 44 53 55 56 50 28 28 46 49 46 47 53 56 62 68 65 66 73
203 199 200 203 208 212 213 213 215 213 209 207 207 205 201 197 198 201 201 199 200 198 194 190 191 190 184 180 179 178 180 179 172 170 170 163 163 166 170 172 172 172 171 167 165 165 168 172 173 175 187 194 193 201 215 212 217 217 220 252 281 318 342 15 25 23 35 46 49 49 51 43 28 29 38 42 43 44 49 52 53 60 56 57 67
206 205 205 206 209 214 216 216 216 213 209 208 207 206 203 198 196 199 201 200 201 201 197 194 192 193 192 189 185 184 185 180 170 167 168 167 168 167 170 173 172 174 176 174 172 173 176 176 174 178 184 187 189 197 208 207 207 213 224 247 264 290 319 346 24 27 37 43 39 37 37 37 31 31 35 36 33 33 46 52 43 45 44 41 53
205 208 210 210 211 215 218 217 213 210 208 206 206 205 204 200 196 197 199 200 202 203 202 200 197 196 195 193 189 187 183 177 170 169 172 170 169 169 172 173 170 174 181 186 189 188 188 185 182 181 183 192 198 201 207 205 203 212 222 234 247 267 292 303 338 22 32 31 29 21 15 19 27 30 34 35 29 22 33 43 39 44 44 40 47
208 210 213 215 215 215 218 216 212 210 207 202 201 203 204 201 196 195 196 197 201 205 205 206 204 199 197 197 193 187 181 178 174 172 173 171 170 172 174 174 172 172 180 192 197 197 195 195 195 198 204 209 205 205 205 204 208 214 220 228 243 260 278 289 300 334 14 8 4 6 2 359 9 17 23 29 30 25 20 17 23 34 37 36 39
211 213 216 220 218 217 218 218 216 213 207 201 198 201 203 202 198 197 197 195 199 205 209 210 208 203 200 199 196 192 187 184 180 177 176 175 174 175 176 178 178 175 179 189 194 195 200 203 206 212 218 213 207 209 209 208 215 220 224 234 246 257 269 279 289 297 293 313 330 346 355 357 10 20 22 26 29 31 21 6 9 17 19 21 26
211 213 218 223 223 222 224 223 222 217 211 206 203 201 203 203 202 202 202 200 199 206 212 213 211 209 206 202 200 198 196 193 189 186 185 186 184 181 181 180 180 180 181 187 193 193 202 211 216 222 220 210 206 211 212 213 220 225 231 242 253 259 263 267 279 289 278 281 312 332 355 12 41 36 24 25 28 27 17 5 3 5 8 11 14
210 213 217 221 223 224 226 226 224 221 216 211 208 206 205 205 205 205 207 205 202 206 213 216 215 212 211 208 204 202 204 202 196 193 193 196 197 193 190 183 177 178 179 186 196 198 207 215 223 230 224 212 210 211 211 215 222 227 237 249 260 266 266 265 271 277 265 259 283 307 347 5 12 30 25 29 35 19 5 3 355 354 0 359 356
209 213 215 217 221 222 225 227 226 222 219 215 212 212 211 209 207 208 209 208 205 207 212 216 216 215 214 213 209 205 206 205 200 196 196 200 207 207 205 196 183 176 165 151 179 217 231 231 229 232 227 217 211 208 209 216 224 230 239 254 264 269 269 268 267 263 250 243 260 277 294 329 328 12 29 39 37 6 357 358 348 346 350 345 341
208 211 214 217 220 222 224 227 227 223 221 219 217 216 215 214 211 211 212 211 209 209 212 215 215 216 216 215 215 211 208 208 205 201 200 202 210 216 217 214 205 193 168 142 154 253 256 248 241 236 232 225 217 212 211 214 219 224 238 256 263 265 266 266 263 254 246 245 254 260 255 263 272 286 9 20 20 4 355 352 347 344 342 337 337
209 211 214 218 220 223 224 227 227 225 223 222 220 220 219 217 215 213 213 212 212 212 213 214 214 216 218 218 218 216 213 213 211 210 211 210 211 216 220 221 220 215 203 198 220 250 269 258 251 245 237 233 226 224 224 223 223 228 239 252 258 262 260 258 258 251 249 254 257 251 242 247 254 253 281 309 329 343 344 344 346 347 344 340 339
208 209 212 217 220 222 225 227 228 226 226 224 223 222 221 220 218 215 215 213 213 215 216 215 215 216 220 221 221 220 219 218 217 218 219 217 213 212 216 221 225 225 225 228 231 240 266 264 256 251 243 237 232 232 235 238 238 237 242 246 251 256 255 252 254 251 252 256 259 253 242 245 254 256 268 282 293 308 320 330 336 341 342 342 341
206 209 211 215 219 222 225 227 228 226 226 226 224 224 222 221 219 217 217 216 214 216 218 216 216 218 222 224 225 223 223 222 222 221 222 222 219 215 217 221 224 224 226 235 241 245 259 262 256 255 250 243 237 237 242 245 246 243 245 246 244 246 250 255 255 251 250 253 257 255 245 247 256 261 267 275 283 293 302 311 320 326 332 337 338
206 209 212 216 219 222 225 227 229 228 228 227 227 226 225 224 223 220 219 217 215 216 218 217 217 220 223 226 226 226 225 225 225 223 223 226 227 226 228 230 230 228 226 234 249 253 258 261 255 256 256 248 240 241 246 249 250 248 249 247 242 242 247 253 254 252 250 251 254 252 246 248 257 264 270 275 282 289 294 300 306 312 319 327 331
200 204 210 214 217 221 225 227 229 229 229 229 229 229 228 226 225 224 223 221 220 219 220 220 220 223 226 227 228 228 227 228 227 227 228 230 231 233 237 242 245 241 235 235 244 250 254 256 254 256 258 250 243 245 250 253 255 255 254 249 241 240 241 243 248 252 253 254 255 253 252 253 258 263 269 277 285 289 293 296 300 303 307 313 319
197 198 201 207 212 217 221 225 228 229 229 230 230 231 230 229 227 226 226 225 224 223 224 224 223 226 228 228 229 229 229 230 230 231 234 236 237 238 242 247 250 248 243 238 238 242 245 246 247 250 251 246 242 246 253 258 260 259 257 252 246 241 238 240 245 249 253 256 257 259 259 259 260 260 264 275 286 292 295 298 299 301 302 305 308
202 199 199 204 208 212 217 223 226 228 230 231 232 233 233 233 231 229 229 228 227 227 227 228 228 230 230 229 229 228 228 230 231 233 235 238 240 242 244 246 247 246 242 239 237 236 238 239 240 241 242 239 236 239 248 255 259 259 258 256 256 254 251 249 248 248 249 251 255 260 260 260 260 261 265 273 282 289 295 300 302 300 300 301 301
204 204 205 206 205 206 208 215 219 223 229 232 234 235 236 237 235 233 232 231 232 232 232 232 234 235 235 233 231 230 230 230 231 233 234 237 239 240 243 244 243 241 239 239 238 236 236 237 235 233 231 230 229 232 239 247 252 255 256 257 260 262 263 262 257 252 250 252 257 261 261 261 263 265 269 272 276 280 285 292 296 297 298 299 297
203 205 206 206 206 208 209 213 216 218 224 231 235 236 237 237 237 236 234 233 233 235 236 236 236 237 239 240 238 235 233 233 234 235 236 238 240 241 241 241 241 239 238 239 239 238 239 238 233 229 226 226 226 227 235 245 251 254 255 255 257 260 263 265 263 257 253 256 260 262 262 265 266 267 270 272 273 275 278 280 282 285 288 289 292
200 203 206 209 212 215 216 218 220 219 221 228 234 237 238 237 237 237 236 234 232 234 236 236 235 234 233 236 242 244 242 240 238 239 240 242 244 244 243 241 240 239 239 240 240 240 242 241 235 230 228 229 229 228 235 245 254 261 262 259 256 257 260 262 263 261 259 259 261 263 265 267 269 271 275 277 278 281 283 283 282 284 285 284 286
196 200 204 208 214 219 221 222 223 224 225 227 231 236 238 239 240 240 239 235 232 234 237 236 236 234 228 227 236 245 248 248 245 244 244 245 247 247 244 242 241 240 241 243 242 241 241 241 239 234 231 232 232 232 237 242 249 260 267 267 261 258 260 262 263 262 261 261 261 264 267 270 273 276 280 283 285 288 289 289 290 292 292 288 287
182 189 195 202 210 217 222 225 228 232 233 233 234 237 240 240 241 242 242 239 233 233 239 241 239 238 235 232 237 244 248 249 247 245 244 242 242 243 242 240 239 241 243 245 246 246 244 242 241 239 236 234 233 234 238 241 246 252 259 264 264 263 262 262 262 262 262 262 263 264 266 269 272 276 279 282 285 288 289 291 292 293 293 291 289
178 184 190 195 200 206 213 218 222 227 230 231 233 236 237 237 238 240 241 239 235 234 241 245 244 241 240 240 240 242 245 246 245 244 245 243 240 238 237 236 236 239 243 246 248 249 248 245 242 241 240 239 235 235 237 240 244 249 252 252 255 263 267 265 263 262 262 262 263 264 265 267 269 272 276 280 283 285 286 287 289 290 290 291 292
182 189 191 191 192 200 207 211 214 218 221 223 226 228 230 232 234 235 235 236 238 239 241 243 244 243 244 244 243 243 244 245 244 244 243 243 241 239 236 235 235 236 239 243 245 248 248 245 241 240 242 243 240 237 237 239 241 247 250 249 249 254 262 268 269 266 263 263 264 265 266 268 270 272 274 277 280 283 286 287 288 290 291 291 293
176 184 186 187 197 206 208 211 215 218 221 223 224 225 228 230 232 234 234 236 238 238 238 240 242 244 246 246 245 245 247 249 250 248 241 234 237 241 240 237 235 233 234 237 238 241 244 243 240 241 243 244 244 243 242 241 242 246 250 253 253 254 258 263 267 266 266 265 266 268 269 270 271 271 270 270 272 276 280 283 285 285 288 290 291
158 160 162 170 185 195 197 202 210 213 219 226 228 227 226 227 230 234 235 236 236 236 237 240 242 243 243 244 244 244 245 246 247 246 238 228 230 239 241 237 234 232 233 236 237 237 238 240 242 244 246 248 248 247 244 242 241 241 243 247 251 255 258 261 264 264 265 266 268 272 274 273 272 270 270 269 269 271 273 276 280 282 285 287 288
146 148 155 160 165 175 181 187 196 203 211 221 227 228 226 224 227 230 230 231 233 234 236 238 239 239 239 240 241 241 241 240 238 236 231 223 224 232 236 235 232 230 233 236 239 238 237 240 243 247 251 253 254 253 249 246 242 239 236 236 239 246 252 257 262 264 264 265 268 271 274 275 275 275 277 277 274 274 274 274 275 277 279 282 285
144 149 152 148 147 161 166 162 172 186 200 213 220 223 223 225 225 225 228 231 231 232 233 233 232 233 236 237 237 237 236 235 233 230 225 219 220 226 230 231 231 231 231 233 236 238 239 241 245 249 253 256 257 257 255 253 248 243 239 237 237 240 246 253 259 264 264 264 266 268 272 274 276 277 278 280 279 277 275 274 272 272 274 278 284
147 153 153 144 138 142 138 129 134 147 171 198 211 205 199 206 213 214 217 220 222 226 230 231 230 230 233 235 237 238 236 234 230 225 219 215 217 223 227 231 233 233 233 232 233 236 240 244 249 252 256 258 259 259 259 256 251 245 243 242 242 244 247 253 259 264 266 265 266 267 269 271 274 276 277 280 280 277 274 273 273 273 274 278 283
151 153 155 150 143 139 132 127 130 136 151 172 186 171 158 162 177 186 191 198 203 209 214 217 218 215 213 210 210 214 218 219 219 218 216 216 218 221 225 229 232 233 234 235 236 240 245 249 253 256 258 259 260 261 261 259 255 250 247 247 247 248 249 253 257 261 264 266 267 269 269 270 273 276 278 279 278 276 276 275 276 278 280 283 285
155 155 156 156 153 152 145 137 134 135 139 144 148 144 141 143 150 156 160 163 167 171 174 177 180 180 180 181 182 183 183 187 194 199 203 210 217 220 222 226 230 233 236 238 242 248 251 252 255 257 257 258 260 261 262 261 259 256 253 252 251 251 252 254 256 258 261 264 267 269 271 272 275 277 278 278 277 275 274 275 279 284 289 291 293
160 161 164 165 163 160 155 145 138 134 128 122 124 130 133 136 140 143 146 150 155 158 156 157 162 163 166 173 177 180 181 181 182 182 184 195 207 214 217 220 225 232 237 238 241 246 250 252 253 253 252 254 256 257 258 259 259 257 256 255 254 253 254 256 257 259 262 266 269 271 273 274 275 275 275 277 278 278 278 280 285 290 294 296 298
162 164 168 169 166 160 154 147 142 141 134 121 120 126 130 132 135 136 134 134 140 143 140 145 151 149 152 158 153 160 170 166 160 162 171 183 195 204 209 213 220 231 239 241 240 241 243 246 248 249 249 250 252 253 253 255 257 256 256 256 255 254 255 256 258 261 264 268 272 274 275 276 276 275 275 276 277 278 280 283 287 291 294 297 299
158 158 158 156 151 145 142 140 137 132 121 110 110 116 119 121 123 127 126 123 125 124 122 130 135 127 126 129 111 106 107 106 120 141 157 171 186 197 203 206 216 228 235 237 237 238 241 245 248 249 249 248 250 252 252 252 254 255 256 257 257 256 257 259 261 262 264 268 271 274 276 278 279 279 279 278 277 278 280 282 285 289 291 293 295
151 154 151 145 140 135 132 132 127 116 105 98 94 93 96 97 100 103 102 105 117 119 114 114 116 113 113 114 108 106 110 117 132 142 149 165 182 192 196 201 209 217 223 228 227 227 230 235 241 244 244 244 247 251 252 252 253 254 255 255 256 257 257 260 262 264 266 267 269 272 273 275 277 279 279 279 278 279 280 282 285 287 288 290 292
149 151 149 144 141 137 134 132 125 116 110 106 98 91 83 74 71 72 69 68 82 98 102 98 88 80 93 114 120 118 120 133 140 139 149 171 183 190 193 196 201 206 218 225 220 214 217 225 233 238 239 240 246 251 255 257 258 259 258 256 255 255 255 258 262 265 267 268 269 270 271 272 274 276 277 278 279 280 282 284 286 287 287 288 289
152 149 148 148 146 143 141 138 131 127 127 125 120 115 99 81 72 66 59 56 56 62 80 86 74 49 8 357 88 96 82 98 126 126 139 165 185 204 206 205 209 212 223 230 223 216 221 226 233 238 237 238 244 251 258 265 267 266 263 258 255 254 255 258 262 265 267 268 268 269 271 273 275 276 278 280 282 284 286 288 289 289 289 290 290
159 152 151 152 150 150 151 145 140 138 139 139 134 111 73 55 54 71 87 90 61 38 48 71 87 97 302 305 306 109 296 283 200 163 182 195 219 241 249 249 246 242 240 226 196 190 202 214 224 231 230 233 239 244 253 264 268 268 263 256 252 252 254 256 260 264 268 270 269 269 272 276 277 278 279 281 283 285 287 287 288 289 290 290 291
167 161 161 161 159 159 159 156 154 155 156 166 221 305 339 343 345 359 32 71 21 1 18 44 97 174 224 252 256 225 220 237 234 216 218 228 238 245 249 246 236 224 213 198 177 174 181 192 204 211 212 218 227 232 243 253 260 266 269 266 262 260 260 260 262 267 272 274 273 271 273 277 280 282 284 284 285 288 292 294 295 294 294 294 295
178 173 172 176 175 171 171 170 171 177 189 216 261 289 298 315 333 347 4 16 19 10 12 15 47 174 205 225 233 226 218 226 235 236 235 235 234 238 241 241 236 227 216 208 201 193 190 192 201 214 225 234 241 241 245 256 268 278 285 288 284 279 274 272 272 272 275 278 279 279 279 278 280 283 286 288 291 296 301 304 305 303 300 299 299
183 181 179 186 192 190 192 192 189 198 222 241 264 285 296 310 319 323 337 346 348 347 342 318 299 280 238 227 232 235 233 235 243 247 247 245 244 243 242 241 243 242 236 229 223 216 213 212 217 227 238 248 257 259 258 263 273 282 288 290 289 286 283 282 281 279 279 279 280 282 282 280 278 280 283 286 289 293 295 297 301 304 302 300 299
185 184 184 191 200 206 221 228 222 236 263 280 289 293 295 296 293 295 304 310 315 318 314 310 310 307 306 307 302 291 283 276 268 263 259 258 257 255 251 249 250 249 249 246 240 233 228 226 225 228 233 242 254 261 265 268 270 275 279 281 281 280 280 280 280 280 279 279 278 280 282 284 285 285 286 287 288 290 292 293 296 299 299 297 297
190 190 190 193 200 212 227 237 254 281 291 300 307 309 310 301 284 283 289 293 299 301 301 302 304 304 305 306 304 303 301 294 288 284 278 272 268 266 264 261 258 257 258 257 254 249 244 240 239 239 240 242 246 251 256 261 264 267 271 273 275 276 277 279 281 281 281 281 281 281 282 284 285 286 287 288 289 290 291 292 294 295 295 293 293
192 194 195 197 204 216 238 261 269 274 293 307 310 309 310 311 310 307 306 306 303 299 299 301 299 297 297 295 294 293 292 287 283 278 275 273 270 268 266 262 260 260 260 261 260 258 254 250 248 247 248 249 250 251 253 256 259 262 265 268 270 271 272 274 276 277 279 280 281 282 282 283 284 286 288 290 291 292 293 294 294 294 293 292 291
193 194 197 204 215 233 265 273 266 276 311 316 308 303 303 305 309 312 313 313 311 307 304 303 302 302 299 296 294 291 287 284 280 273 268 265 262 260 260 258 255 254 252 254 257 258 257 257 255 253 253 254 256 258 259 259 260 262 264 266 268 270 271 272 274 276 278 281 283 285 287 289 291 293 294 294 295 296 298 299 300 299 298 297 296
197 199 205 215 230 252 261 257 257 290 310 302 291 287 287 290 295 301 303 304 305 306 305 304 303 303 302 301 300 296 290 286 282 278 273 267 261 257 256 255 255 254 253 253 255 256 258 259 258 258 258 258 261 264 267 268 268 268 269 271 273 275 277 279 281 284 286 287 289 291 293 294 296 297 299 300 300 300 301 303 303 303 303 303 301
202 206 214 222 233 247 252 251 263 287 286 277 267 265 268 273 280 286 291 294 296 297 298 299 299 298 299 301 301 299 296 292 287 283 280 274 268 262 258 256 256 255 254 253 255 257 259 260 260 260 260 258 259 260 263 268 272 274 276 277 279 281 282 284 285 287 288 290 291 292 293 295 296 297 299 300 300 302 303 302 302 303 303 303 302
Height
1572 1574 1576 1578 1580 1581 1583 1585 1586 1588 1589 1591 1592 1593 1595 1596 1597 1598 1599 1600 1602 1603 1604 1604 1606 1607 1608 1609 1610 1610 1611 1612 1613 1613 1614 1615 1616 1617 1617 1618 1619 1620 1620 1621 1621 1622 1622 1623 1624 1624 1624 1625 1625 1625 1626 1626 1626 1627 1627 1627 1627 1627 1627 1627 1627 1627 1626 1626 1625 1625 1625 1625 1625 1625 1626 1626 1626 1625 1625 1625 1625 1625 1624 1624 1624
1572 1573 1575 1577 1579 1581 1582 1584 1585 1587 1588 1590 1592 1593 1594 1596 1597 1598 1599 1600 1601 1603 1604 1605 1606 1607 1609 1610 1610 1611 1612 1613 1613 1614 1615 1615 1616 1617 1618 1618 1619 1620 1620 1621 1621 1622 1622 1623 1624 1624 1625 1625 1625 1626 1626 1626 1626 1627 1627 1627 1628 1628 1628 1628 1628 1627 1627 1627 1626 1626 1626 1626 1626 1626 1626 1626 1626 1626 1626 1626 1625 1625 1625 1625 1625
1571 1572 1574 1576 1578 1580 1581 1583 1585 1587 1588 1590 1591 1593 1594 1595 1596 1598 1599 1600 1601 1603 1604 1605 1606 1608 1609 1610 1611 1612 1612 1613 1613 1614 1615 1616 1616 1617 1618 1618 1619 1620 1620 1621 1622 1622 1622 1623 1624 1624 1624 1625 1625 1625 1626 1626 1627 1627 1627 1628 1628 1628 1628 1628 1628 1628 1628 1627 1627 1627 1627 1627 1627 1627 1627 1627 1627 1627 1626 1626 1626 1626 1626 1626 1625
1570 1572 1574 1576 1577 1579 1580 1582 1584 1586 1588 1589 1591 1592 1593 1595 1596 1597 1599 1600 1601 1603 1604 1606 1607 1608 1609 1610 1611 1612 1612 1613 1613 1614 1615 1616 1617 1617 1618 1619 1619 1620 1620 1621 1622 1622 1623 1623 1624 1624 1624 1625 1625 1626 1626 1626 1627 1627 1627 1628 1628 1629 1629 1629 1628 1628 1628 1628 1628 1628 1628 1628 1628 1628 1628 1628 1628 1627 1627 1627 1627 1627 1627 1626 1626
1569 1571 1573 1575 1576 1578 1579 1581 1583 1585 1587 1588 1590 1591 1593 1594 1596 1597 1598 1600 1601 1603 1604 1606 1607 1608 1609 1610 1610 1611 1612 1613 1614 1615 1615 1616 1617 1618 1618 1619 1619 1620 1621 1621 1622 1622 1623 1623 1624 1624 1625 1625 1625 1626 1626 1626 1627 1627 1628 1628 1629 1629 1629 1629 1629 1629 1629 1629 1628 1629 1629 1629 1629 1629 1629 1628 1628 1628 1628 1628 1628 1627 1627 1627 1627
1568 1570 1572 1573 1575 1577 1578 1580 1582 1584 1586 1588 1589 1591 1593 1594 1595 1597 1598 1599 1601 1602 1604 1605 1607 1608 1609 1610 1610 1611 1612 1613 1614 1615 1616 1616 1617 1618 1618 1619 1619 1620 1621 1621 1622 1622 1623 1623 1624 1624 1625 1625 1626 1626 1626 1627 1627 1627 1628 1628 1629 1629 1630 1630 1630 1630 1629 1629 1629 1629 1629 1630 1630 1629 1629 1629 1629 1629 1628 1628 1628 1628 1628 1628 1627
1567 1569 1571 1573 1574 1576 1577 1579 1581 1583 1585 1587 1589 1590 1592 1594 1595 1596 1598 1599 1601 1602 1603 1605 1606 1607 1609 1610 1611 1612 1613 1614 1615 1615 1616 1616 1617 1618 1618 1619 1619 1620 1621 1621 1622 1622 1623 1623 1624 1624 1625 1625 1626 1626 1627 1627 1627 1628 1628 1629 1629 1629 1630 1630 1630 1630 1630 1630 1630 1630 1630 1630 1630 1630 1630 1630 1630 1629 1629 1629 1629 1629 1628 1628 1628
1565 1568 1569 1571 1573 1575 1576 1578 1580 1582 1584 1586 1588 1589 1591 1593 1594 1596 1597 1599 1600 1602 1603 1604 1606 1607 1608 1610 1611 1612 1613 1614 1615 1615 1616 1616 1617 1618 1618 1619 1619 1620 1621 1621 1622 1622 1623 1623 1624 1624 1625 1625 1626 1626 1627 1627 1627 1628 1628 1629 1629 1629 1630 1630 1630 1630 1631 1630 1630 1630 1630 1630 1630 1630 1630 1630 1630 1630 1630 1630 1630 1629 1629 1629 1628
1564 1566 1568 1570 1572 1574 1576 1578 1580 1581 1583 1585 1586 1588 1590 1592 1593 1595 1597 1598 1600 1601 1602 1604 1605 1607 1608 1609 1610 1611 1612 1613 1614 1615 1616 1616 1617 1617 1618 1619 1619 1620 1620 1621 1621 1622 1622 1623 1623 1624 1624 1625 1625 1626 1626 1627 1627 1628 1628 1629 1629 1630 1630 1630 1630 1630 1631 1631 1631 1631 1630 1630 1630 1630 1631 1631 1631 1631 1631 1630 1630 1630 1630 1629 1628
1563 1565 1567 1569 1570 1573 1575 1577 1579 1580 1582 1584 1585 1587 1589 1591 1592 1594 1596 1597 1599 1601 1602 1603 1605 1606 1607 1609 1610 1611 1612 1613 1614 1614 1615 1616 1617 1617 1618 1619 1619 1620 1620 1621 1621 1622 1622 1623 1623 1624 1624 1625 1625 1626 1626 1627 1627 1628 1628 1629 1629 1629 1630 1630 1630 1630 1630 1631 1631 1631 1631 1631 1631 1631 1631 1631 1631 1631 1631 1631 1630 1630 1630 1629 1629
1561 1564 1566 1568 1570 1572 1574 1576 1578 1579 1581 1583 1584 1586 1588 1589 1591 1593 1595 1597 1598 1600 1601 1603 1604 1605 1607 1608 1609 1611 1611 1612 1613 1614 1615 1616 1616 1617 1618 1618 1619 1620 1620 1621 1621 1622 1622 1623 1623 1624 1624 1624 1625 1625 1626 1627 1627 1628 1628 1629 1629 1629 1629 1630 1630 1630 1630 1630 1631 1631 1631 1631 1631 1631 1631 1631 1631 1631 1631 1631 1631 1630 1630 1629 1629
1559 1562 1564 1566 1568 1570 1573 1574 1576 1578 1580 1581 1583 1585 1587 1588 1590 1592 1594 1596 1597 1599 1600 1602 1603 1604 1606 1607 1609 1610 1611 1612 1613 1614 1614 1615 1616 1617 1618 1618 1619 1619 1620 1621 1621 1621 1622 1623 1623 1624 1624 1624 1625 1625 1626 1627 1627 1628 1628 1628 1629 1629 1629 1629 1630 1630 1630 1630 1631 1631 1631 1631 1631 1631 1631 1631 1631 1631 1631 1631 1631 1630 1630 1629 1629
1557 1559 1562 1564 1566 1569 1571 1573 1575 1576 1578 1580 1582 1584 1585 1587 1589 1591 1593 1595 1596 1598 1599 1601 1602 1603 1605 1606 1608 1609 1610 1611 1612 1613 1614 1615 1616 1617 1618 1618 1619 1619 1620 1621 1621 1621 1622 1623 1623 1623 1624 1624 1625 1625 1626 1626 1627 1627 1628 1628 1628 1629 1629 1629 1629 1629 1630 1630 1630 1631 1631 1631 1631 1631 1631 1631 1631 1631 1631 1631 1630 1630 1630 1629 1628
1555 1557 1560 1562 1564 1567 1569 1571 1573 1575 1577 1579 1581 1582 1584 1586 1588 1590 1592 1594 1595 1597 1598 1599 1601 1602 1604 1606 1607 1608 1609 1611 1612 1613 1614 1615 1616 1617 1618 1618 1619 1620 1620 1621 1621 1621 1622 1622 1623 1623 1624 1624 1624 1625 1625 1626 1626 1627 1628 1628 1628 1628 1628 1629 1629 1629 1629 1630 1630 1630 1631 1631 1631 1631 1631 1631 1631 1631 1631 1631 1630 1629 1629 1629 1628
1552 1555 1558 1560 1563 1565 1567 1569 1571 1573 1575 1577 1579 1581 1583 1585 1587 1589 1591 1592 1594 1596 1597 1598 1600 1601 1603 1604 1606 1607 1608 1610 1611 1612 1614 1615 1616 1617 1618 1618 1619 1620 1620 1621 1621 1621 1622 1622 1623 1623 1623 1624 1624 1624 1625 1625 1626 1626 1627 1628 1628 1628 1628 1628 1629 1629 1629 1630 1630 1630 1630 1631 1631 1631 1631 1631 1631 1631 1631 1631 1630 1629 1629 1628 1628
1551 1554 1556 1559 1561 1564 1566 1568 1570 1572 1574 1576 1577 1579 1581 1584 1586 1588 1590 1591 1593 1595 1596 1597 1599 1600 1602 1603 1605 1606 1607 1609 1610 1612 1613 1614 1615 1616 1617 1618 1619 1619 1620 1621 1621 1621 1622 1622 1622 1623 1623 1623 1624 1624 1625 1625 1625 1626 1626 1627 1627 1628 1628 1628 1628 1629 1629 1629 1629 1630 1630 1630 1630 1630 1631 1631 1630 1630 1630 1630 1629 1629 1628 1628 1627
1550 1552 1555 1557 1560 1562 1564 1566 1568 1570 1572 1574 1576 1578 1580 1582 1584 1586 1589 1590 1592 1593 1595 1597 1598 1599 1601 1602 1603 1605 1606 1608 1609 1611 1612 1613 1614 1615 1616 1617 1618 1619 1619 1620 1620 1621 1621 1621 1622 1622 1622 1623 1623 1624 1624 1625 1625 1626 1626 1626 1627 1627 1627 1627 1628 1628 1628 1629 1629 1629 1630 1630 1630 1630 1630 1630 1630 1630 1630 1629 1629 1628 1628 1627 1627
1549 1551 1554 1556 1558 1561 1563 1564 1566 1568 1570 1573 1575 1577 1579 1581 1583 1585 1587 1589 1591 1592 1594 1595 1597 1598 1599 1600 1602 1604 1605 1607 1608 1610 1611 1612 1613 1614 1615 1616 1617 1618 1618 1619 1620 1620 1621 1621 1621 1622 1622 1622 1623 1623 1624 1624 1624 1625 1625 1626 1626 1626 1626 1627 1627 1628 1628 1628 1628 1628 1629 1629 1629 1630 1630 1630 1629 1629 1629 1628 1628 1627 1627 1627 1627
1548 1550 1552 1554 1557 1559 1561 1563 1565 1567 1569 1571 1573 1575 1577 1579 1581 1583 1586 1588 1589 1591 1592 1594 1596 1597 1598 1599 1601 1603 1604 1606 1607 1609 1610 1611 1612 1613 1614 1615 1616 1617 1617 1618 1619 1619 1620 1620 1620 1621 1621 1622 1622 1623 1623 1623 1624 1624 1624 1625 1625 1625 1626 1626 1626 1627 1627 1627 1627 1628 1628 1628 1629 1629 1629 1629 1629 1628 1628 1627 1627 1627 1626 1626 1626
1546 1549 1551 1553 1555 1558 1559 1562 1563 1565 1568 1569 1571 1574 1575 1578 1580 1582 1584 1586 1588 1590 1591 1593 1595 1596 1597 1598 1600 1602 1603 1605 1606 1607 1609 1610 1611 1612 1613 1614 1615 1615 1616 1617 1617 1618 1619 1619 1620 1620 1621 1621 1622 1622 1623 1623 1623 1624 1624 1624 1625 1625 1625 1625 1625 1626 1626 1626 1627 1627 1628 1628 1628 1628 1628 1628 1628 1628 1627 1627 1626 1626 1626 1625 1625
1545 1548 1550 1553 1555 1556 1558 1561 1562 1564 1566 1568 1570 1572 1574 1576 1578 1580 1583 1584 1587 1588 1590 1592 1593 1594 1596 1597 1599 1600 1602 1603 1604 1606 1607 1608 1609 1610 1612 1613 1613 1614 1615 1615 1616 1617 1617 1618 1619 1619 1620 1621 1621 1622 1622 1622 1623 1623 1623 1624 1624 1624 1624 1625 1625 1625 1625 1626 1626 1626 1627 1627 1627 1627 1627 1627 1627 1627 1626 1626 1625 1625 1625 1624 1624
1545 1547 1549 1552 1554 1555 1557 1559 1561 1563 1565 1566 1569 1570 1572 1574 1576 1578 1581 1582 1585 1586 1588 1591 1592 1593 1595 1596 1598 1599 1600 1602 1603 1604 1606 1607 1608 1609 1610 1611 1612 1613 1613 1614 1615 1615 1616 1617 1617 1618 1619 1620 1620 1621 1621 1621 1622 1622 1622 1623 1623 1623 1624 1624 1624 1624 1624 1625 1625 1625 1626 1626 1626 1626 1626 1626 1626 1626 1626 1625 1625 1624 1624 1624 1623
1545 1547 1549 1551 1552 1554 1556 1558 1560 1561 1562 1565 1567 1568 1570 1572 1574 1576 1578 1580 1582 1584 1586 1588 1590 1592 1593 1595 1597 1598 1599 1600 1601 1603 1604 1605 1606 1607 1608 1609 1610 1611 1612 1613 1613 1614 1615 1615 1616 1617 1618 1619 1620 1620 1621 1621 1621 1621 1622 1622 1622 1623 1623 1623 1623 1624 1624 1624 1624 1624 1624 1625 1625 1625 1625 1625 1625 1625 1625 1624 1624 1623 1623 1623 1622
1544 1546 1548 1549 1551 1552 1554 1556 1559 1560 1561 1563 1565 1566 1568 1569 1571 1573 1575 1578 1580 1582 1584 1586 1587 1589 1590 1592 1594 1596 1598 1599 1600 1602 1603 1604 1605 1606 1607 1608 1609 1610 1610 1611 1612 1613 1613 1614 1615 1616 1616 1617 1618 1619 1620 1620 1620 1621 1621 1621 1621 1621 1622 1622 1622 1623 1623 1623 1623 1623 1623 1624 1624 1624 1624 1624 1624 1624 1624 1623 1623 1623 1622 1622 1621
1543 1545 1546 1548 1549 1550 1552 1554 1557 1558 1560 1562 1563 1565 1566 1568 1569 1570 1573 1575 1577 1579 1581 1583 1585 1587 1588 1590 1591 1594 1596 1597 1599 1600 1601 1603 1604 1605 1605 1606 1607 1608 1609 1610 1610 1611 1612 1613 1613 1614 1615 1616 1617 1617 1618 1619 1619 1620 1620 1620 1620 1620 1621 1621 1621 1621 1621 1622 1622 1622 1622 1622 1622 1622 1623 1623 1623 1623 1623 1623 1622 1622 1621 1621 1620
1542 1543 1545 1546 1547 1549 1551 1553 1555 1557 1559 1560 1562 1563 1564 1566 1567 1569 1571 1573 1575 1578 1580 1582 1584 1585 1587 1588 1589 1591 1593 1595 1597 1598 1599 1601 1602 1603 1604 1604 1605 1606 1607 1608 1609 1609 1610 1611 1612 1612 1613 1614 1615 1615 1616 1617 1618 1618 1619 1619 1619 1619 1620 1620 1620 1620 1620 1620 1620 1621 1621 1621 1621 1621 1621 1621 1621 1622 1621 1621 1621 1621 1621 1620 1620
1541 1542 1544 1545 1547 1550 1552 1554 1555 1556 1557 1558 1560 1561 1562 1563 1565 1567 1569 1571 1573 1576 1578 1580 1583 1584 1585 1586 1587 1589 1591 1592 1594 1595 1597 1598 1599 1600 1601 1602 1603 1604 1605 1606 1607 1607 1608 1608 1610 1610 1611 1612 1613 1613 1614 1615 1616 1617 1617 1618 1618 1618 1619 1619 1619 1619 1619 1619 1619 1619 1619 1619 1619 1619 1619 1620 1620 1620 1620 1620 1620 1620 1619 1619 1618
1541 1542 1544 1546 1548 1551 1552 1553 1554 1554 1555 1556 1558 1559 1561 1562 1563 1565 1567 1569 1571 1574 1576 1578 1580 1582 1583 1584 1585 1587 1588 1590 1592 1593 1594 1595 1597 1599 1599 1600 1601 1601 1603 1604 1604 1605 1606 1606 1608 1608 1609 1610 1611 1612 1612 1613 1614 1615 1615 1616 1617 1617 1617 1617 1618 1618 1618 1618 1618 1618 1618 1618 1618 1618 1618 1618 1618 1618 1618 1618 1618 1618 1617 1617 1617
1542 1543 1544 1546 1548 1549 1550 1551 1552 1553 1554 1554 1556 1558 1560 1561 1563 1564 1566 1567 1568 1570 1572 1574 1576 1579 1581 1582 1583 1585 1587 1589 1590 1591 1592 1592 1595 1597 1598 1598 1599 1599 1600 1601 1602 1603 1603 1604 1605 1606 1607 1608 1609 1610 1611 1611 1612 1613 1614 1614 1615 1615 1616 1616 1616 1616 1616 1616 1616 1617 1617 1617 1617 1616 1616 1616 1616 1616 1616 1615 1616 1616 1616 1615 1615
1542 1544 1545 1546 1547 1548 1549 1550 1551 1552 1553 1553 1555 1556 1558 1560 1561 1562 1564 1564 1565 1567 1568 1570 1572 1575 1577 1578 1579 1582 1584 1586 1588 1589 1589 1590 1592 1594 1596 1597 1597 1597 1598 1599 1600 1600 1601 1602 1603 1604 1606 1606 1607 1608 1608 1609 1610 1611 1611 1612 1612 1613 1614 1614 1614 1614 1615 1615 1615 1615 1615 1615 1615 1615 1614 1614 1614 1614 1614 1614 1614 1613 1614 1613 1613
1543 1544 1545 1546 1547 1548 1549 1549 1550 1551 1552 1553 1554 1555 1556 1558 1559 1560 1560 1561 1563 1564 1566 1567 1569 1571 1573 1575 1577 1578 1579 1581 1584 1586 1586 1587 1589 1591 1594 1595 1595 1595 1596 1597 1598 1598 1599 1600 1601 1602 1604 1604 1605 1605 1606 1607 1608 1608 1609 1609 1610 1610 1611 1612 1612 1612 1613 1613 1613 1613 1613 1613 1613 1613 1613 1612 1612 1612 1612 1611 1611 1611 1611 1611 1611
1544 1545 1545 1547 1547 1548 1549 1549 1550 1550 1551 1552 1553 1553 1555 1556 1557 1558 1559 1560 1561 1562 1564 1565 1567 1569 1571 1573 1575 1575 1576 1578 1580 1582 1583 1584 1586 1589 1591 1592 1593 1593 1594 1594 1595 1596 1597 1597 1598 1600 1601 1602 1603 1603 1604 1605 1605 1606 1607 1607 1607 1608 1608 1609 1610 1610 1610 1610 1611 1611 1611 1611 1611 1611 1611 1611 1610 1610 1609 1609 1609 1609 1609 1609 1609
1545 1545 1546 1547 1547 1548 1549 1549 1549 1550 1551 1551 1552 1553 1554 1555 1556 1556 1557 1559 1560 1561 1562 1563 1565 1567 1569 1571 1573 1573 1574 1575 1577 1579 1580 1582 1584 1586 1588 1590 1590 1591 1591 1592 1592 1593 1594 1595 1596 1598 1599 1600 1600 1601 1602 1602 1603 1603 1604 1605 1605 1606 1606 1607 1607 1608 1608 1608 1608 1608 1608 1609 1609 1609 1609 1609 1608 1608 1608 1607 1607 1607 1607 1607 1607
1545 1546 1546 1547 1547 1549 1549 1549 1550 1550 1551 1551 1552 1553 1554 1555 1556 1557 1558 1559 1560 1560 1561 1562 1564 1566 1567 1568 1570 1570 1571 1573 1574 1575 1578 1579 1582 1584 1586 1587 1587 1588 1589 1590 1590 1591 1591 1592 1594 1596 1597 1597 1597 1598 1599 1599 1600 1601 1602 1602 1603 1604 1605 1605 1605 1606 1606 1606 1606 1606 1606 1607 1607 1607 1607 1606 1606 1606 1606 1605 1605 1605 1605 1605 1605
1546 1546 1547 1548 1548 1549 1550 1550 1550 1551 1551 1552 1553 1554 1555 1556 1556 1557 1558 1559 1560 1560 1562 1562 1564 1565 1565 1566 1567 1568 1570 1571 1572 1573 1575 1577 1580 1582 1584 1584 1585 1585 1586 1587 1588 1588 1589 1590 1591 1594 1595 1595 1595 1596 1596 1597 1598 1598 1599 1600 1601 1601 1602 1603 1603 1603 1603 1604 1604 1604 1604 1604 1605 1605 1604 1604 1604 1604 1604 1604 1603 1603 1603 1602 1602
1546 1547 1548 1548 1549 1550 1551 1551 1551 1552 1553 1553 1554 1555 1556 1556 1557 1558 1559 1560 1561 1561 1562 1563 1564 1564 1565 1566 1567 1568 1569 1569 1570 1571 1573 1576 1578 1580 1581 1582 1582 1583 1584 1585 1585 1586 1586 1587 1589 1591 1593 1594 1593 1594 1594 1594 1595 1595 1596 1597 1598 1598 1599 1600 1600 1601 1601 1602 1602 1602 1602 1602 1602 1601 1601 1601 1601 1601 1601 1601 1601 1600 1600 1599 1598
1547 1548 1549 1550 1550 1551 1552 1552 1552 1553 1554 1555 1556 1557 1557 1557 1557 1558 1559 1560 1561 1562 1563 1564 1564 1565 1566 1567 1568 1569 1569 1569 1569 1570 1572 1574 1576 1578 1579 1580 1581 1581 1582 1582 1583 1584 1584 1586 1587 1590 1591 1592 1592 1591 1591 1591 1592 1593 1593 1594 1595 1595 1596 1597 1597 1598 1599 1599 1599 1599 1599 1599 1599 1598 1598 1599 1599 1599 1598 1598 1598 1597 1596 1596 1595
1548 1549 1550 1551 1552 1552 1553 1554 1554 1555 1556 1557 1558 1559 1559 1559 1559 1559 1561 1561 1562 1562 1563 1564 1565 1566 1567 1567 1568 1568 1569 1570 1571 1571 1572 1574 1575 1577 1578 1578 1579 1580 1580 1581 1582 1582 1583 1585 1586 1588 1589 1590 1589 1589 1589 1589 1589 1590 1590 1591 1592 1593 1593 1594 1594 1595 1596 1596 1596 1596 1597 1597 1596 1596 1596 1596 1596 1596 1595 1595 1594 1593 1593 1592 1592
1551 1551 1551 1552 1553 1554 1555 1556 1556 1556 1557 1558 1559 1560 1561 1561 1561 1562 1563 1563 1563 1564 1564 1565 1566 1567 1568 1568 1568 1569 1570 1571 1572 1572 1573 1574 1575 1575 1576 1577 1578 1578 1579 1580 1580 1581 1582 1583 1584 1586 1587 1587 1587 1586 1586 1586 1587 1587 1588 1588 1589 1590 1590 1591 1592 1592 1593 1593 1593 1593 1593 1593 1593 1593 1593 1593 1593 1593 1592 1591 1591 1590 1589 1588 1588
1553 1553 1553 1554 1555 1556 1557 1557 1557 1558 1558 1559 1560 1561 1561 1561 1562 1563 1564 1564 1565 1566 1566 1566 1566 1567 1569 1569 1570 1571 1571 1572 1572 1573 1573 1574 1574 1575 1575 1576 1577 1577 1578 1578 1579 1580 1580 1581 1583 1584 1584 1585 1584 1584 1584 1585 1585 1585 1586 1586 1587 1587 1588 1588 1589 1590 1590 1590 1591 1591 1590 1590 1590 1590 1590 1590 1590 1589 1589 1588 1588 1587 1585 1584 1584
1555 1555 1555 1556 1557 1558 1559 1559 1559 1560 1560 1561 1561 1561 1561 1562 1563 1564 1565 1565 1566 1566 1567 1567 1567 1568 1570 1571 1571 1571 1571 1572 1572 1573 1573 1574 1574 1575 1575 1575 1576 1577 1577 1577 1578 1579 1580 1581 1581 1582 1582 1583 1582 1582 1582 1582 1583 1583 1583 1584 1584 1584 1585 1586 1586 1587 1588 1588 1588 1588 1588 1588 1588 1588 1588 1588 1587 1587 1586 1586 1585 1584 1583 1581 1580
1556 1557 1557 1558 1558 1559 1560 1561 1561 1561 1562 1562 1562 1562 1562 1562 1563 1564 1565 1566 1566 1567 1567 1567 1567 1569 1571 1572 1572 1571 1572 1572 1573 1573 1573 1574 1574 1575 1575 1575 1575 1576 1577 1577 1578 1580 1580 1580 1580 1581 1581 1581 1581 1581 1581 1580 1580 1581 1581 1581 1581 1581 1582 1583 1584 1585 1585 1585 1586 1586 1586 1586 1586 1586 1586 1585 1585 1584 1584 1583 1582 1581 1580 1579 1577
1558 1558 1559 1559 1560 1561 1561 1561 1562 1562 1563 1563 1564 1563 1563 1563 1563 1564 1565 1566 1566 1567 1567 1567 1569 1570 1571 1572 1572 1571 1572 1572 1573 1573 1573 1574 1574 1575 1575 1575 1576 1576 1577 1578 1578 1579 1580 1580 1580 1580 1580 1580 1580 1580 1580 1579 1579 1579 1579 1579 1579 1579 1580 1581 1582 1582 1583 1583 1584 1584 1584 1584 1584 1584 1584 1583 1583 1582 1581 1581 1580 1579 1578 1576 1575
1559 1559 1560 1560 1561 1561 1562 1562 1562 1563 1563 1564 1564 1564 1564 1564 1564 1564 1564 1565 1566 1567 1567 1568 1569 1570 1571 1572 1571 1571 1571 1572 1572 1572 1573 1573 1574 1575 1575 1576 1576 1577 1577 1578 1579 1579 1579 1579 1579 1579 1579 1579 1579 1579 1579 1579 1578 1578 1578 1578 1578 1578 1578 1579 1579 1580 1580 1581 1581 1581 1582 1582 1582 1582 1582 1581 1581 1580 1579 1579 1578 1577 1575 1574 1573
1559 1560 1560 1561 1562 1562 1563 1563 1563 1563 1564 1564 1564 1564 1564 1564 1565 1565 1565 1566 1566 1567 1568 1569 1569 1570 1570 1570 1571 1571 1571 1571 1572 1572 1572 1573 1574 1574 1575 1576 1576 1576 1577 1578 1578 1579 1579 1579 1578 1578 1578 1578 1578 1578 1578 1578 1578 1577 1577 1577 1577 1577 1577 1577 1577 1578 1578 1579 1579 1579 1579 1580 1580 1580 1579 1579 1579 1578 1577 1576 1575 1574 1573 1572 1571
1560 1560 1561 1562 1562 1563 1563 1563 1563 1563 1563 1564 1564 1564 1565 1565 1565 1566 1566 1566 1567 1567 1568 1568 1569 1569 1569 1570 1570 1570 1571 1571 1571 1572 1572 1573 1573 1573 1574 1575 1575 1575 1576 1576 1577 1578 1578 1578 1578 1578 1578 1578 1578 1578 1577 1577 1577 1577 1576 1576 1576 1576 1575 1575 1576 1576 1576 1577 1577 1577 1577 1577 1577 1577 1577 1576 1576 1575 1575 1574 1573 1572 1571 1569 1568
1560 1561 1562 1563 1563 1564 1564 1564 1564 1564 1564 1564 1564 1564 1564 1565 1566 1566 1567 1567 1567 1568 1568 1568 1569 1569 1569 1569 1569 1569 1570 1570 1570 1571 1571 1572 1572 1572 1573 1573 1573 1574 1574 1575 1575 1576 1576 1577 1577 1577 1577 1577 1577 1577 1576 1576 1576 1575 1575 1575 1575 1574 1574 1574 1574 1574 1574 1575 1575 1575 1575 1574 1574 1574 1574 1573 1573 1572 1572 1571 1570 1569 1568 1567 1566
1558 1560 1561 1562 1563 1564 1564 1564 1564 1564 1564 1564 1564 1564 1564 1565 1565 1566 1566 1567 1567 1568 1568 1568 1568 1568 1568 1569 1569 1569 1569 1569 1570 1570 1570 1570 1571 1571 1571 1572 1572 1572 1573 1573 1573 1574 1574 1575 1575 1575 1576 1576 1575 1575 1575 1575 1574 1574 1573 1573 1573 1573 1573 1573 1573 1572 1572 1572 1572 1572 1572 1572 1571 1571 1571 1570 1569 1568 1568 1567 1567 1566 1565 1564 1563
1557 1559 1560 1562 1562 1563 1563 1564 1565 1565 1564 1565 1565 1565 1565 1564 1565 1565 1565 1566 1566 1566 1567 1567 1567 1567 1567 1568 1568 1568 1568 1568 1569 1569 1569 1570 1570 1570 1570 1571 1571 1571 1571 1572 1572 1572 1572 1573 1573 1573 1574 1574 1573 1573 1573 1573 1572 1572 1571 1571 1571 1570 1570 1570 1570 1570 1570 1570 1569 1569 1568 1568 1568 1568 1567 1567 1566 1565 1564 1563 1563 1562 1561 1561 1560
1556 1557 1558 1560 1561 1562 1563 1564 1564 1564 1565 1565 1565 1565 1565 1565 1565 1564 1564 1565 1565 1565 1565 1566 1566 1566 1566 1566 1566 1567 1567 1567 1567 1568 1568 1569 1569 1569 1569 1569 1570 1570 1570 1570 1570 1570 1570 1570 1571 1571 1571 1571 1571 1571 1570 1570 1570 1570 1570 1569 1569 1568 1568 1568 1568 1567 1567 1566 1566 1566 1566 1565 1565 1564 1564 1563 1563 1562 1561 1561 1559 1559 1558 1557 1556
1555 1556 1557 1559 1560 1561 1562 1563 1564 1564 1565 1565 1565 1565 1565 1565 1565 1564 1564 1564 1564 1564 1565 1565 1565 1565 1565 1565 1565 1565 1565 1566 1566 1566 1567 1567 1567 1568 1568 1568 1568 1568 1568 1568 1568 1568 1568 1569 1569 1569 1569 1569 1569 1569 1568 1568 1568 1568 1568 1567 1567 1567 1566 1566 1566 1565 1565 1564 1564 1563 1563 1562 1562 1561 1561 1560 1559 1559 1558 1558 1557 1556 1555 1554 1554